TimeMDT,TemperatureF,Dew PointF,Humidity,Sea Level PressureIn,VisibilityMPH,Wind Direction,Wind SpeedMPH,Gust SpeedMPH,PrecipitationIn,Events,Conditions,WindDirDegrees,DateUTC
12:15 AM,68.0,53.8,60,30.07,7.0,NE,6.9,-,N/A,,Mostly Cloudy,40,2013-07-29 06:15:00
12:35 AM,67.3,55.4,66,30.08,7.0,North,8.1,-,N/A,Rain,Rain,10,2013-07-29 06:35:00
12:55 AM,66.2,57.2,73,30.09,10.0,West,6.9,-,N/A,Rain,Rain,260,2013-07-29 06:55:00
1:15 AM,67.8,56.8,68,30.09,10.0,West,6.9,-,N/A,Rain-Thunderstorm,Rain,280,2013-07-29 07:15:00
1:55 AM,68.4,56.1,65,30.09,10.0,WNW,18.4,-,N/A,Rain,Rain,290,2013-07-29 07:55:00
2:15 AM,68.2,56.3,66,30.09,10.0,WSW,13.8,20.7,N/A,Rain-Thunderstorm,Rain,250,2013-07-29 08:15:00
2:35 AM,65.8,57.9,76,30.10,7.0,NE,4.6,-,N/A,Thunderstorm,Overcast,40,2013-07-29 08:35:00
2:55 AM,66.0,57.7,75,30.12,10.0,Calm,Calm,-,N/A,,Overcast,0,2013-07-29 08:55:00
3:15 AM,63.7,58.3,83,30.13,7.0,WSW,12.7,17.3,N/A,Rain,Light Rain,240,2013-07-29 09:15:00
3:35 AM,61.9,58.5,89,30.12,7.0,SSW,6.9,-,N/A,Rain,Light Rain,210,2013-07-29 09:35:00
3:55 AM,61.0,58.1,90,30.12,7.0,SW,9.2,-,N/A,Rain,Light Rain,230,2013-07-29 09:55:00
4:15 AM,61.3,57.6,87,30.12,10.0,Calm,Calm,-,N/A,,Scattered Clouds,0,2013-07-29 10:15:00
4:35 AM,61.5,58.5,90,30.13,10.0,East,4.6,-,N/A,,Clear,100,2013-07-29 10:35:00
4:55 AM,60.8,58.8,93,30.13,10.0,East,4.6,-,N/A,,Scattered Clouds,80,2013-07-29 10:55:00
5:15 AM,60.1,58.5,94,30.14,10.0,ENE,4.6,-,N/A,,Scattered Clouds,60,2013-07-29 11:15:00
5:35 AM,59.9,58.1,94,30.14,7.0,NNE,5.8,-,N/A,,Clear,30,2013-07-29 11:35:00
5:55 AM,59.4,57.7,94,30.15,7.0,North,6.9,-,N/A,,Clear,10,2013-07-29 11:55:00
6:15 AM,59.9,57.7,93,30.15,7.0,North,6.9,-,N/A,,Clear,10,2013-07-29 12:15:00
6:35 AM,60.3,58.1,93,30.15,7.0,NNE,4.6,-,N/A,,Clear,30,2013-07-29 12:35:00
6:55 AM,62.8,58.1,85,30.15,10.0,NNE,6.9,-,N/A,,Clear,20,2013-07-29 12:55:00
7:15 AM,64.4,58.1,80,30.16,10.0,Calm,Calm,-,N/A,,Clear,0,2013-07-29 13:15:00
7:35 AM,64.4,59.0,83,30.16,10.0,East,3.5,-,N/A,,Clear,80,2013-07-29 13:35:00
7:55 AM,65.1,59.4,82,30.17,10.0,Calm,Calm,-,N/A,,Clear,0,2013-07-29 13:55:00
8:15 AM,66.0,58.3,76,30.18,10.0,Calm,Calm,-,N/A,,Clear,0,2013-07-29 14:15:00
8:35 AM,66.6,57.4,72,30.18,10.0,Calm,Calm,-,N/A,,Clear,0,2013-07-29 14:35:00
8:55 AM,66.4,58.1,75,30.19,10.0,Calm,Calm,-,N/A,,Clear,0,2013-07-29 14:55:00
9:15 AM,67.6,58.8,73,30.19,10.0,Calm,Calm,-,N/A,,Clear,0,2013-07-29 15:15:00
9:35 AM,68.5,59.0,72,30.19,10.0,ESE,3.5,-,N/A,,Clear,110,2013-07-29 15:35:00
9:55 AM,68.9,57.6,67,30.19,10.0,Calm,Calm,-,N/A,,Clear,0,2013-07-29 15:55:00
10:15 AM,69.1,57.7,67,30.19,10.0,Calm,Calm,-,N/A,,Clear,0,2013-07-29 16:15:00
10:35 AM,69.1,57.2,66,30.19,10.0,South,3.5,-,N/A,,Scattered Clouds,180,2013-07-29 16:35:00
10:55 AM,71.6,57.6,61,30.20,10.0,Calm,Calm,-,N/A,,Scattered Clouds,0,2013-07-29 16:55:00
11:15 AM,72.5,55.4,55,30.19,10.0,Calm,Calm,-,N/A,,Clear,0,2013-07-29 17:15:00
11:35 AM,72.9,56.3,56,30.19,10.0,Calm,Calm,-,N/A,,Clear,0,2013-07-29 17:35:00
11:55 AM,73.8,56.7,55,30.19,10.0,South,3.5,-,N/A,,Clear,190,2013-07-29 17:55:00
12:15 PM,75.2,56.8,53,30.19,10.0,ESE,4.6,-,N/A,,Scattered Clouds,110,2013-07-29 18:15:00
12:35 PM,77.2,56.8,49,30.18,7.0,Calm,Calm,-,N/A,Thunderstorm,Clear,0,2013-07-29 18:35:00
12:55 PM,75.7,55.8,50,30.18,10.0,SSE,3.5,-,N/A,,Scattered Clouds,160,2013-07-29 18:55:00
1:15 PM,77.7,55.8,47,30.17,10.0,South,3.5,-,N/A,,Clear,190,2013-07-29 19:15:00
1:35 PM,76.1,56.5,50,30.17,10.0,SSW,6.9,-,N/A,,Scattered Clouds,210,2013-07-29 19:35:00
1:55 PM,77.0,57.6,51,30.16,7.0,SW,5.8,-,N/A,,Scattered Clouds,230,2013-07-29 19:55:00
2:15 PM,78.4,56.3,46,30.16,10.0,SW,6.9,-,N/A,Thunderstorm,Thunderstorm,220,2013-07-29 20:15:00
2:35 PM,76.3,55.9,49,30.16,7.0,West,8.1,18.4,N/A,Rain,Light Rain,260,2013-07-29 20:35:00
2:55 PM,79.9,54.9,42,30.15,10.0,West,9.2,-,N/A,Rain,Rain,280,2013-07-29 20:55:00
3:15 PM,82.0,52.9,36,30.15,10.0,South,10.4,-,N/A,Rain,Rain,180,2013-07-29 21:15:00
3:35 PM,82.4,53.2,36,30.14,10.0,SSW,5.8,-,N/A,,Clear,210,2013-07-29 21:35:00
3:55 PM,83.5,56.3,39,30.14,7.0,SSW,9.2,-,N/A,,Clear,200,2013-07-29 21:55:00
4:15 PM,84.2,51.6,32,30.13,7.0,South,9.2,-,N/A,,Clear,190,2013-07-29 22:15:00
4:35 PM,84.2,51.1,32,30.13,10.0,SSW,5.8,-,N/A,,Clear,200,2013-07-29 22:35:00
4:55 PM,84.9,51.3,31,30.13,7.0,South,5.8,-,N/A,,Clear,190,2013-07-29 22:55:00
5:15 PM,82.9,50.5,32,30.13,10.0,SSE,8.1,-,N/A,,Clear,160,2013-07-29 23:15:00
5:35 PM,82.0,50.0,33,30.13,5.0,South,4.6,-,N/A,Thunderstorm,Unknown,180,2013-07-29 23:35:00
5:55 PM,81.7,51.6,35,30.13,5.0,SSW,5.8,-,N/A,,Haze,200,2013-07-29 23:55:00
6:15 PM,80.6,54.0,40,30.15,7.0,SW,9.2,-,N/A,Thunderstorm,Scattered Clouds,230,2013-07-30 00:15:00
6:35 PM,77.0,45.3,32,30.20,5.0,West,33.4,44.9,N/A,,Haze,260,2013-07-30 00:35:00
6:55 PM,68.5,51.8,55,30.20,7.0,West,9.2,32.2,N/A,Rain-Thunderstorm,Rain,280,2013-07-30 00:55:00
7:15 PM,70.3,53.8,56,30.15,7.0,Calm,Calm,-,N/A,Rain,Light Rain,0,2013-07-30 01:15:00
7:35 PM,68.0,54.7,62,30.21,5.0,SSW,11.5,21.9,N/A,Thunderstorm,Haze,200,2013-07-30 01:35:00
7:55 PM,67.5,54.5,63,30.22,7.0,SSE,10.4,-,N/A,,Clear,160,2013-07-30 01:55:00
8:15 PM,66.2,54.9,67,30.23,7.0,Calm,Calm,-,N/A,,Clear,0,2013-07-30 02:15:00
8:35 PM,66.6,52.5,61,30.24,7.0,Calm,Calm,-,N/A,,Clear,0,2013-07-30 02:35:00
8:55 PM,66.2,53.6,64,30.25,10.0,North,10.4,-,N/A,,Clear,350,2013-07-30 02:55:00
9:15 PM,66.6,52.9,61,30.25,10.0,SE,4.6,-,N/A,,Clear,130,2013-07-30 03:15:00
9:35 PM,64.2,55.4,73,30.25,10.0,SSE,3.5,-,N/A,,Clear,160,2013-07-30 03:35:00
9:55 PM,64.0,55.8,74,30.26,10.0,SSE,4.6,-,N/A,,Clear,150,2013-07-30 03:55:00
10:15 PM,63.7,56.5,77,30.27,7.0,Calm,Calm,-,N/A,,Clear,0,2013-07-30 04:15:00
10:35 PM,62.8,57.0,81,30.26,7.0,NNW,4.6,-,N/A,,Clear,340,2013-07-30 04:35:00
10:55 PM,63.7,56.5,77,30.28,7.0,SW,8.1,-,N/A,,Clear,220,2013-07-30 04:55:00
11:15 PM,62.6,56.5,80,30.30,7.0,SSW,8.1,-,N/A,,Clear,210,2013-07-30 05:15:00
11:35 PM,63.1,56.7,79,30.28,10.0,East,5.8,-,N/A,,Clear,90,2013-07-30 05:35:00
11:55 PM,63.1,56.3,78,30.27,10.0,NNE,9.2,-,N/A,,Scattered Clouds,30,2013-07-30 05:55:00